Regional Weather Roundup
Issued by NWS

Home | Current Version | Previous Version | Graphics & Text | Print | Product List | Glossary Off
Versions: 1 2 3 4 5 6 7 8 9 10 11 12 13 14 15 16 17 18 19 20 21 22 23 24 25 26 27 28 29 30 31 32 33 34 35 36 37 38 39 40 41 42 43 44 45 46 47 48 49 50

000
ASUS43 KLMK 230410
RWRKY
KENTUCKY REGIONAL WEATHER ROUNDUP
NATIONAL WEATHER SERVICE LOUISVILLE KY
1200 AM EDT THU MAR 23 2017

NOTE "FAIR" INDICATES FEW OR NO CLOUDS BELOW 12,000 FEET
WITH NO SIGNIFICANT WEATHER AND/OR OBSTRUCTIONS TO VISIBILITY.

KYZ001>023-026-027-061>063-070>075-230500-
WESTERN AND SOUTH CENTRAL KENTUCKY

CITY           SKY/WX    TMP DP  RH WIND       PRES   REMARKS
PADUCAH        CLEAR     44  22  41 NE5       30.35S
HENDERSON      CLOUDY    37  19  48 E10       30.39F WCI  30
OWENSBORO      PTCLDY    42  18  37 E12       30.40F
HOPKINSVILLE   PTCLDY    44  20  39 NE9       30.35F
BOWLING GREEN  CLEAR     40  21  46 NE7       30.40S
GLASGOW        CLEAR     38  22  51 NE9       30.39F WCI  32
$$

KYZ024-025-028>034-038-045-046-053-230500-
NORTH CENTRAL KENTUCKY

CITY           SKY/WX    TMP DP  RH WIND       PRES   REMARKS
LOUISVILLE/SDF PTCLDY    38  18  44 NE8       30.45S WCI  32
LOUISVILLE/LOU CLEAR     38  20  48 NE6       30.45F WCI  33
FORT KNOX      CLEAR     38  19  46 NE8       30.40F WCI  32
$$

KYZ035>037-039>044-047>052-055>060-089>105-230500-
NORTHEAST KENTUCKY

CITY           SKY/WX    TMP DP  RH WIND       PRES   REMARKS
LEXINGTON      CLEAR     31  19  61 NE10      30.43S WCI  22
COVINGTON      CLEAR     33  19  56 NE10      30.46S WCI  25
FRANKFORT      CLEAR     35  18  49 NE7       30.44R WCI  29
$$

KYZ054-064>069-076>088-106>120-230500-
SOUTHEAST KENTUCKY

CITY           SKY/WX    TMP DP  RH WIND       PRES   REMARKS
JACKSON        CLEAR     36  14  40 VRB6      30.41R WCI  31
LONDON         CLEAR     38  13  35 NE7       30.39R WCI  33
SOMERSET       CLEAR     36  19  51 N5        30.41S WCI  32
MIDDLESBORO    CLEAR     37  27  68 CALM      30.39R
MONTICELLO     CLEAR     37  23  56 NW7       30.41R WCI  32
$$




USA.gov is the U.S. government's official web portal to all federal, state and local government web resources and services.